Regional Weather Roundup
Issued by NWS Little Rock, AR

Current Version | Previous Version | Text Only | Print | Product List | Glossary On
Versions: 1 2 3 4 5 6 7 8 9 10 11 12 13 14 15 16 17 18 19 20 21 22 23 24 25 26 27 28 29 30 31 32 33 34 35 36 37 38 39 40 41 42 43 44 45 46 47 48 49 50
000
ASUS44 KLZK 210710
RWRLZK
ARKANSAS STATE WEATHER ROUNDUP
NATIONAL WEATHER SERVICE LITTLE ROCK AR
ISSUED BY NATIONAL WEATHER SERVICE MEMPHIS TN
200 AM CDT THU SEP 21 2017

NOTE: "FAIR" INDICATES FEW OR NO CLOUDS BELOW 12,000 FEET WITH NO
SIGNIFICANT WEATHER AND/OR OBSTRUCTIONS TO VISIBILITY.

ARZ001-003-010-029-210800-
NORTHWEST ARKANSAS

CITY           SKY/WX    TMP DP  RH WIND       PRES   REMARKS
FORT SMITH     CLEAR     78  71  79 CALM      29.93S
HARRISON       CLEAR     74  70  87 S7        30.00R
BENTONVILLE    CLEAR     74  69  85 SE6       29.99S
ROGERS         CLEAR     75  69  81 S9        29.98F
SILOAM SPGS    CLEAR     76  70  82 SE7       29.96F
HIGHFILL       CLEAR     75  70  84 S9        29.97S
$$

ARZ004-005-016-210800-
NORTH CENTRAL ARKANSAS

CITY           SKY/WX    TMP DP  RH WIND       PRES   REMARKS
BATESVILLE     CLEAR    N/A N/A N/A S6        29.99R
FLIPPIN        CLEAR     76  71  85 CALM      29.98R
$$

ARZ040-041-210800-
WEST CENTRAL ARKANSAS

CITY           SKY/WX    TMP DP  RH WIND       PRES   REMARKS
MOUNT IDA      CLEAR     78  67  68 CALM      29.97S
$$

ARZ017-025-026-028-210800-
NORTHEAST ARKANSAS

CITY           SKY/WX    TMP DP  RH WIND       PRES   REMARKS
JONESBORO      CLEAR     71  71 100 CALM      29.98R
NEWPORT        CLEAR     71  70  96 S3        29.98R
BLYTHEVILLE    CLEAR     75  73  93 S5        29.99R
$$

ARZ022-033-042-044-210800-
CENTRAL ARKANSAS

CITY           SKY/WX    TMP DP  RH WIND       PRES   REMARKS
LITTLE ROCK    CLEAR     77  74  90 SW3       29.98R
JACKSONVILLE   CLEAR     77  74  89 S3        29.97R
SEARCY         CLEAR     71  71 100 CALM      29.99R
HOT SPRINGS    CLEAR     79  70  74 CALM      29.99S
RUSSELLVILLE   PTCLDY    74  72  93 CALM      29.96R
$$

ARZ036-210800-
EAST ARKANSAS

CITY           SKY/WX    TMP DP  RH WIND       PRES   REMARKS
WEST MEMPHIS   CLEAR     75  73  93 S5        29.98R
$$

ARZ050-070-073-210800-
SOUTHWEST ARKANSAS

CITY           SKY/WX    TMP DP  RH WIND       PRES   REMARKS
TEXARKANA      PTCLDY    74  70  87 S7        29.97S
EL DORADO      CLEAR     70  68  93 CALM      29.99R
DEQUEEN        CLEAR     76  73  91 CALM      29.93F
$$

ARZ056-057-069-210800-
SOUTHEAST ARKANSAS

CITY           SKY/WX    TMP DP  RH WIND       PRES   REMARKS
PINE BLUFF     CLEAR     74  71  91 S6        29.98S
STUTTGART      CLEAR     75  72  90 S6        29.99R
MONTICELLO     CLEAR     75  72  90 S5        29.99R
$$




USA.gov is the U.S. government's official web portal to all federal, state and local government web resources and services.